Simultaneous Nadir Overpasses (SNOs) Predictions

Prediction of SNOs between METOP-A and TERRA Satellite Orbit:

Table of predicted SNOs for the next 14.0 days since TLE Epoch: 1/27/2012
Index Date Time (METOP-A) METOP-A Lat,Lon TERRA Lat,Lon Distance(km) Time Diff (sec)
1 01/29/2012 05:56:34 -81.28, -42.75 -81.27, -42.74 0.81 34
2 01/29/2012 06:47:13 81.29, 125.26 81.30, 125.37 1.98 40
3 02/01/2012 01:30:59 -81.28, 23.77 -81.28, 23.95 3.10 20
4 02/01/2012 02:21:38 81.29,-168.26 81.29,-168.35 1.44 53
5 02/03/2012 21:05:23 -81.29, 90.63 -81.29, 90.52 1.83 7
6 02/03/2012 21:56:03 81.29,-101.84 81.29,-101.80 0.72 67
7 02/06/2012 15:49:08 81.27, -11.16 81.27, -11.02 2.38 66
8 02/06/2012 16:39:47 -81.29, 157.04 -81.29, 156.97 1.26 7
9 02/09/2012 11:23:32 81.28, 55.55 81.28, 55.67 1.97 52




NCC Satellite Simultaneous Nadir Overpasses (SNOs) Prediction Service
